Hourly Data Report for September 07, 2017

All times are specified in Local Standard Time (LST). Add 1 hour to adjust for Daylight Saving Time where and when it is observed.

ST. PETERS
PRINCE EDWARD ISLAND

46°27'01.000" N
62°34'33.000" W
29.70 m
8300562
71310
ZSP

Download Data

Hourly Data (September 2017)
Hourly Data Report for September 7, 2017
Temp Definition
°C
Dew Point Temp Definition
°C
Rel Hum Definition
%
Wind Dir Definition
10's deg

Wind Spd Definition
km/h
Visibility Definition
km
Stn Press Definition
kPa
Hmdx Definition


Wind Chill Definition


Weather Definition


TIME
00:00 21.4 19.4 88 18 16   101.49 28   LegendNANA
01:00 21.6 19.8 90 16 14   101.47 29   LegendNANA
02:00 20.7 19.3 91 16 15   101.40 28   LegendNANA
03:00 20.7 19.4 92 17 15   101.37 28   LegendNANA
04:00 21.2 19.7 91 17 17   101.35 29   LegendNANA
05:00 21.4 19.9 91 16 20   101.26 29   LegendNANA
06:00 21.5 19.9 91 16 20   101.23 29   LegendNANA
07:00 21.5 19.9 90 15 18   101.15 29   LegendNANA
08:00 21.5 20.5 94 15 21   101.07 29   LegendNANA
09:00 22.2 21.2 94 16 20   100.97 31   LegendNANA
10:00 21.8 20.4 91 16 24   100.95 30   LegendNANA
11:00 21.7 20.6 94 16 19   100.90 30   LegendNANA
12:00 22.1 21.3 95 15 19   100.67 31   LegendNANA
13:00 23.1 21.6 91 18 31   100.76 32   LegendNANA
14:00 23.2 21.5 90 17 25   100.70 32   LegendNANA
15:00 23.1 21.1 89 17 26   100.60 32   LegendNANA
16:00 22.8 20.8 89 18 31   100.55 31   LegendNANA
17:00 22.6 20.2 86 18 33   100.48 30   LegendNANA
18:00 22.6 20.1 86 19 27   100.51 30   LegendNANA
19:00 22.3 20.0 87 18 24   100.53 30   LegendNANA
20:00 22.1 19.9 88 19 22   100.59 30   LegendNANA
21:00 21.7 19.5 87 19 22   100.64 29   LegendNANA
22:00 21.1 18.5 85 20 22   100.69 27   LegendNANA
23:00 20.3 18.1 87 19 20   100.69 26   LegendNANA

Notes on Data Quality.

Legend

  • E = Estimated
  • M = Missing
  • NA = Not Available
  • ‡ = Partner data that is not subject to review by the National Climate Archives
Date modified: